Weather in Uzlovoe

Ukraine / Lviv District     50°13′28″N   24°32′57″E
temp.,
°C
wind,
m/s
gust,
m/s
humid.,
%
clouds,
%
prec.,
mm/h
press.,
hPa
HPBL,
m
7 march, sun
sun723:00−2wsw5127234 0.0 1028379
02:00−1wsw6127217 0.0 1027427
05:00−1wsw715630 0.0 1024676
08:000wsw9165616 0.0 1022996
11:00+3w11165453 0.0 10201320
14:00+5w10154773 0.0 10181549
17:00+4w7145428 0.0 10161546
20:000w5136849 0.0 1015505
8 march, mon
mon823:000w61275100 0.0 1015852
02:00−1w71290100 0.1 1014673
05:00−1w71194100 0.4 1014728
08:00−1nw5880100 1.1 1015619
11:00+1nw695662 0.0 10161291
14:00+2nw795765 0.1 10171619
17:00+1nw6865100 0.1 10181290
20:00−2nw387895 0.1 1020271
9 march, tue
tue923:00−3wnw36820 0.0 1021194
02:00−3wnw36840 0.0 1022204
05:00−4wnw25850 0.0 1022227
08:00−3nw247637 0.0 1023368
11:00−1nnw235593 0.0 10231008
14:00+1nnw224688 0.0 10231444
17:000nne2250100 0.0 10221178
20:00−2e236689 0.0 102360
10 march, wed
wed1023:00−3ese247090 0.0 1023140
02:00−2ese247195 0.0 1022156
05:00−2e2371100 0.0 1021132
08:00−2e2367100 0.0 1022192
11:00+1ene225085 0.0 10221080
14:00+2nne234264 0.0 10221596
17:00+1nne234999 0.0 10221387
20:00−2ne126059 0.0 102421
11 march, thu
thu1123:00−2sse12620 0.0 102521
02:00−2sw22640 0.0 102425
05:00−3sw12650 0.0 102323
08:00−2s34710 0.0 1023195
11:00+2s575129 0.0 1021934
14:00+4ssw695065 0.0 10191130
17:00+3ssw51058100 0.0 1016873
20:00+1s71484100 0.1 1015833